Content
SEND FEEDBACK

Daily
Averages
Monthly
Summary
Germany

GARMISCH-PARTENKIRCHEN, GERMANY


Home > Europe > Germany
Elevation: 2322 feet     Latitude: 47 30N     Longitude: 011 06E

WEATHER
 
SELECT A DAY
Number of Records: 311,557;   Date Range: 7/1/96 - 8/31/14
 
SHARE

PRINT THIS DATA

[ ← Previous Day ]
WEATHER ALMANAC - FEBRUARY 8, 2013
[ Next Day → ]
[ °C ]   °F
Weather ElementAverageHighLow
Temperature26.5 °F32 °F (12:20 pm)21.2 °F (2:20 am)
Dewpoint22.6 °F26.6 °F (10:20 pm)19.4 °F (12:50 am)
Humidity84.7 %100 % (6:20 am)56 % (1:00 pm)
Barometer29.86 in30.00 in (10:00 pm)29.83 in (12:50 am)
Wind Speed3.6 mph13.8 mph (1:20 pm)
Weather ElementAverage
Visibility5.9 mi
Wind DirectionENE (82.2 °)

Weather ElementTotal
Precipitation---
Heating Degree Days38.4 (Base 65)
Averaged from 55 records on February 8, 2013
WEATHER CONDITIONS BREAKOUT
WIND DIRECTION BREAKOUT
WEATHER BY HOUR - FEBRUARY 8, 2013
[ °C ]   °F
Local TimeTemperatureDewpointHumidityBarometerVisibilityWind DirectionWind SpeedGust SpeedPrecipitationEventsConditions
12:50 AM23.0 °F19.4 °F86 %29.83 in6.2 miVariable2.3 mphMostly Cloudy
1:00 AM22.0 °F20.0 °F86 %29.98 in9.0 mi°2.2 mph
1:20 AM23.0 °F19.4 °F86 %29.83 in6.2 miVariable1.2 mphOvercast
1:50 AM23.0 °F19.4 °F86 %29.83 in6.2 miVariable2.3 mphMostly Cloudy
2:20 AM21.2 °F19.4 °F93 %29.83 in6.2 miVariable1.2 mphScattered Clouds
2:50 AM21.2 °F19.4 °F93 %29.83 in6.2 miVariable1.2 mphScattered Clouds
3:20 AM23.0 °F19.4 °F86 %29.83 in5.6 miVariable1.2 mphMostly Cloudy
3:50 AM23.0 °F19.4 °F86 %29.83 in6.2 miVariable1.2 mphMostly Cloudy
4:00 AM23.0 °F20.0 °F82 %29.97 in6.0 mi°2.2 mphSnowLight Snow
4:20 AM23.0 °F21.2 °F93 %29.83 in6.2 miVariable1.2 mphMostly Cloudy
4:50 AM23.0 °F21.2 °F93 %29.83 in4.3 miVariable1.2 mphMostly Cloudy
5:20 AM23.0 °F21.2 °F93 %29.83 in4.3 miVariable1.2 mphMostly Cloudy
5:50 AM23.0 °F21.2 °F93 %29.83 in5.0 miVariable1.2 mphMostly Cloudy
6:20 AM21.2 °F21.2 °F100 %29.83 in6.2 miVariable2.3 mphMostly Cloudy
6:50 AM21.2 °F19.4 °F93 %29.83 in6.2 miVariable1.2 mphMostly Cloudy
7:00 AM22.0 °F20.0 °F88 %29.97 in6.0 mi°2.2 mphSnowLight Snow
7:20 AM21.2 °F19.4 °F93 %29.83 in6.2 miVariable1.2 mphMostly Cloudy
7:50 AM21.2 °F19.4 °F93 %29.83 in5.0 miSouth (170°)2.3 mphSnowLight Snow Showers
8:20 AM23.0 °F21.2 °F93 %29.83 in6.2 miWNW (300°)3.5 mphSnowLight Snow Showers
8:50 AM24.8 °F21.2 °F86 %29.83 in3.7 miWest (270°)3.5 mphSnowLight Snow Showers
9:20 AM24.8 °F21.2 °F86 %29.83 in3.7 miVariable1.2 mphSnowLight Snow Showers
9:50 AM26.6 °F23.0 °F86 %29.86 in6.2 miVariable1.2 mphSnowLight Snow Showers
10:00 AM26.0 °F22.0 °F81 %29.97 in6.0 mi°2.2 mphSnowLight Snow Showers
10:20 AM26.6 °F21.2 °F80 %29.86 in6.2 miVariable2.3 mphSnowLight Snow Showers
10:50 AM28.4 °F23.0 °F80 %29.86 in6.2 miVariable1.2 mphSnowLight Snow Showers
11:20 AM30.2 °F23.0 °F75 %29.83 in6.2 miVariable2.3 mphSnowLight Snow Showers
11:50 AM30.2 °F23.0 °F75 %29.83 in6.2 miVariable2.3 mphMostly Cloudy
12:20 PM32.0 °F21.2 °F64 %29.83 in6.2 miVariable1.2 mphMostly Cloudy
12:50 PM32.0 °F21.2 °F64 %29.83 in6.2 miWest (270°)5.8 mphMostly Cloudy
1:00 PM31.0 °F21.0 °F56 %29.92 in19.0 miWest (270°)6.7 mphPartly Cloudy
1:20 PM30.2 °F23.0 °F75 %29.83 in6.2 miWest (270°)13.8 mphSnowLight Snow Showers
1:50 PM30.2 °F23.0 °F75 %29.83 in6.2 miWest (280°)12.7 mphSnowLight Snow Showers
2:20 PM30.2 °F24.8 °F80 %29.83 in3.7 miWest (280°)8.1 mphSnowLight Snow Showers
2:50 PM30.2 °F24.8 °F80 %29.83 in5.0 miWNW (290°)6.9 mphSnowLight Snow Showers
3:20 PM30.2 °F24.8 °F80 %29.83 in6.2 miENE (60°)5.8 mphSnowLight Snow Showers
3:50 PM30.2 °F24.8 °F80 %29.83 in6.2 miENE (70°)8.1 mphSnowLight Snow Showers
4:00 PM30.0 °F25.0 °F74 %29.93 in11.0 miENE (70°)8.9 mphSnowLight Snow Showers
4:20 PM30.2 °F24.8 °F80 %29.83 in6.2 miENE (70°)9.2 mphScattered Clouds
4:50 PM30.2 °F24.8 °F80 %29.83 in6.2 miENE (70°)6.9 mphScattered Clouds
5:20 PM28.4 °F24.8 °F86 %29.83 in6.2 miENE (70°)6.9 mphScattered Clouds
5:50 PM28.4 °F24.8 °F86 %29.86 in6.2 miENE (70°)4.6 mphScattered Clouds
6:20 PM28.4 °F24.8 °F86 %29.86 in6.2 miENE (70°)4.6 mphScattered Clouds
6:50 PM28.4 °F24.8 °F86 %29.86 in6.2 miEast (80°)4.6 mphScattered Clouds
7:00 PM28.0 °F25.0 °F82 %29.97 in16.0 miEast (80°)4.5 mphPartly Cloudy
7:20 PM28.4 °F24.8 °F86 %29.86 in6.2 miENE (70°)3.5 mphScattered Clouds
7:50 PM28.4 °F24.8 °F86 %29.89 in6.2 miVariable2.3 mphSnowLight Snow
8:20 PM28.4 °F24.8 °F86 %29.89 in6.2 miENE (60°)3.5 mphSnowLight Snow
8:50 PM28.4 °F24.8 °F86 %29.89 in4.3 miNE (50°)2.3 mphSnowLight Snow
9:20 PM28.4 °F24.8 °F86 %29.89 in3.7 miVariable1.2 mphSnowLight Snow
9:50 PM28.4 °F24.8 °F86 %29.89 in1.9 miVariable1.2 mphSnowLight Snow
10:00 PM28.0 °F26.0 °F86 %30.00 in2.0 mi°2.2 mphSnowLight Snow
10:20 PM26.6 °F26.6 °F100 %29.89 in1.9 miWest (260°)4.6 mphSnowLight Snow
10:50 PM26.6 °F24.8 °F93 %29.89 in1.1 miWest (280°)5.8 mphSnowSnow
11:20 PM26.6 °F24.8 °F93 %29.89 in0.6 miWest (280°)3.5 mphSnowHeavy Snow
11:50 PM26.6 °F24.8 °F93 %29.89 in1.2 miVariable1.2 mphSnowHeavy Snow
Hourly data recorded from LOWI, located miles away from Garmisch-Partenkirchen, Germany







STORIES FROM OUR PARTNERS